Time,TemperatureF,DewpointF,PressureIn,WindDirection,WindDirectionDegrees,WindSpeedMPH,WindSpeedGustMPH,Humidity,HourlyPrecipIn,Conditions,Clouds,dailyrainin,SoftwareType,DateUTC
2013-05-17 00:14:00,59.0,46.0,-100.00,North,355,0.0,0.0,63,-99.99,,,-99.99,,2013-05-17 05:14:00,
2013-05-17 00:43:00,59.0,45.0,-100.00,North,355,0.0,0.0,60,-99.99,,,-99.99,,2013-05-17 05:43:00,
2013-05-17 00:52:00,59.0,45.0,-100.00,North,355,0.0,0.0,60,-99.99,,,-99.99,,2013-05-17 05:52:00,
2013-05-17 01:30:00,58.0,46.0,-100.00,North,355,0.0,0.0,63,-99.99,,,-99.99,,2013-05-17 06:30:00,
2013-05-17 01:42:00,59.0,46.0,-100.00,North,355,0.0,0.0,61,-99.99,,,-99.99,,2013-05-17 06:42:00,
2013-05-17 01:52:00,59.0,46.0,-100.00,North,355,0.0,0.0,61,-99.99,,,-99.99,,2013-05-17 06:52:00,
2013-05-17 02:43:00,58.0,47.0,-100.00,North,355,0.0,0.0,67,-99.99,,,-99.99,,2013-05-17 07:43:00,
2013-05-17 02:53:00,58.0,47.0,-100.00,North,355,0.0,0.0,67,-99.99,,,-99.99,,2013-05-17 07:53:00,
2013-05-17 03:43:00,59.0,46.0,-100.00,North,355,0.0,0.0,64,-99.99,,,-99.99,,2013-05-17 08:43:00,
2013-05-17 03:52:00,59.0,46.0,-100.00,North,355,0.0,0.0,64,-99.99,,,-99.99,,2013-05-17 08:52:00,
2013-05-17 04:12:00,59.0,46.0,-100.00,North,355,0.0,0.0,64,-99.99,,,-99.99,,2013-05-17 09:12:00,
2013-05-17 04:42:00,58.0,48.0,-100.00,North,355,0.0,0.0,68,-99.99,,,-99.99,,2013-05-17 09:42:00,
2013-05-17 04:53:00,58.0,48.0,-100.00,North,355,0.0,0.0,68,-99.99,,,-99.99,,2013-05-17 09:53:00,
2013-05-17 05:42:00,59.0,49.0,-100.00,North,355,0.0,0.0,70,-99.99,,,-99.99,,2013-05-17 10:42:00,
2013-05-17 05:54:00,59.0,49.0,-100.00,North,355,0.0,0.0,70,-99.99,,,-99.99,,2013-05-17 10:54:00,
2013-05-17 06:12:00,59.0,49.0,-100.00,North,355,0.0,0.0,70,-99.99,,,-99.99,,2013-05-17 11:12:00,
2013-05-17 06:42:00,59.0,51.0,-100.00,North,355,0.0,0.0,76,-99.99,,,-99.99,,2013-05-17 11:42:00,
2013-05-17 06:53:00,59.0,51.0,-100.00,North,355,0.0,0.0,76,-99.99,,,-99.99,,2013-05-17 11:53:00,
2013-05-17 07:43:00,61.0,54.0,-100.00,North,355,0.0,0.0,77,-99.99,,,-99.99,,2013-05-17 12:43:00,
2013-05-17 07:53:00,61.0,54.0,-100.00,North,355,0.0,0.0,77,-99.99,,,-99.99,,2013-05-17 12:53:00,
2013-05-17 08:42:00,63.0,56.0,-100.00,North,355,0.0,0.0,77,-99.99,,,-99.99,,2013-05-17 13:42:00,
2013-05-17 08:52:00,63.0,56.0,-100.00,North,355,0.0,0.0,77,-99.99,,,-99.99,,2013-05-17 13:52:00,
2013-05-17 09:43:00,62.0,56.0,-100.00,North,355,0.0,0.0,79,-99.99,,,-99.99,,2013-05-17 14:43:00,
2013-05-17 09:53:00,62.0,56.0,-100.00,North,355,0.0,0.0,79,-99.99,,,-99.99,,2013-05-17 14:53:00,
2013-05-17 10:14:00,62.0,56.0,-100.00,North,355,0.0,0.0,79,-99.99,,,-99.99,,2013-05-17 15:14:00,
2013-05-17 10:47:00,62.0,58.0,-100.00,North,355,0.0,0.0,87,-99.99,,,-99.99,,2013-05-17 15:47:00,
2013-05-17 10:57:00,62.0,58.0,-100.00,North,355,0.0,0.0,87,-99.99,,,-99.99,,2013-05-17 15:57:00,
2013-05-17 11:50:00,65.0,59.0,-100.00,North,355,0.0,0.0,83,-99.99,,,-99.99,,2013-05-17 16:50:00,
2013-05-17 11:56:00,65.0,59.0,-100.00,North,355,0.0,0.0,83,-99.99,,,-99.99,,2013-05-17 16:56:00,
2013-05-17 12:49:00,67.0,59.0,-100.00,North,355,0.0,0.0,77,-99.99,,,-99.99,,2013-05-17 17:49:00,
2013-05-17 13:00:00,67.0,-99.9,-100.00,North,355,0.0,0.0,77,-99.99,,,-99.99,,2013-05-17 18:00:00,
2013-05-17 15:15:00,66.0,54.0,-100.00,North,355,0.0,0.0,66,-99.99,,,-99.99,,2013-05-17 20:15:00,
2013-05-17 15:50:00,66.0,54.0,-100.00,North,355,0.0,0.0,66,-99.99,,,-99.99,,2013-05-17 20:50:00,
2013-05-17 15:58:00,66.0,54.0,-100.00,North,355,0.0,0.0,66,-99.99,,,-99.99,,2013-05-17 20:58:00,
2013-05-17 16:07:00,66.0,54.0,-100.00,North,355,0.0,0.0,66,-99.99,,,-99.99,,2013-05-17 21:07:00,
2013-05-17 16:49:00,69.0,56.0,-100.00,North,355,0.0,0.0,64,-99.99,,,-99.99,,2013-05-17 21:49:00,
2013-05-17 16:58:00,69.0,56.0,-100.00,North,355,0.0,0.0,64,-99.99,,,-99.99,,2013-05-17 21:58:00,
2013-05-17 17:47:00,65.0,54.0,-100.00,North,355,0.0,0.0,68,-99.99,,,-99.99,,2013-05-17 22:47:00,
2013-05-17 17:55:00,65.0,54.0,-100.00,North,355,0.0,0.0,68,-99.99,,,-99.99,,2013-05-17 22:55:00,
2013-05-17 18:04:00,65.0,54.0,-100.00,North,355,0.0,0.0,68,-99.99,,,-99.99,,2013-05-17 23:04:00,
2013-05-17 18:13:00,65.0,54.0,-100.00,North,355,0.0,0.0,68,-99.99,,,-99.99,,2013-05-17 23:13:00,
2013-05-17 18:47:00,64.0,54.0,-100.00,North,355,0.0,0.0,70,-99.99,,,-99.99,,2013-05-17 23:47:00,
2013-05-17 18:54:00,64.0,54.0,-100.00,North,355,0.0,0.0,70,-99.99,,,-99.99,,2013-05-17 23:54:00,
2013-05-17 19:02:00,64.0,54.0,-100.00,North,355,0.0,0.0,70,-99.99,,,-99.99,,2013-05-18 00:02:00,
2013-05-17 19:14:00,64.0,54.0,-100.00,North,355,0.0,0.0,70,-99.99,,,-99.99,,2013-05-18 00:14:00,
2013-05-17 19:45:00,64.0,54.0,-100.00,North,355,0.0,0.0,70,-99.99,,,-99.99,,2013-05-18 00:45:00,
2013-05-17 19:54:00,64.0,54.0,-100.00,North,355,0.0,0.0,70,-99.99,,,-99.99,,2013-05-18 00:54:00,
2013-05-17 20:03:00,64.0,54.0,-100.00,North,355,0.0,0.0,70,-99.99,,,-99.99,,2013-05-18 01:03:00,
2013-05-17 20:13:00,64.0,54.0,-100.00,North,355,0.0,0.0,70,-99.99,,,-99.99,,2013-05-18 01:13:00,
2013-05-17 20:43:00,62.0,55.0,-100.00,North,355,0.0,0.0,78,-99.99,,,-99.99,,2013-05-18 01:43:00,
2013-05-17 20:52:00,62.0,55.0,-100.00,North,355,0.0,0.0,78,-99.99,,,-99.99,,2013-05-18 01:52:00,
2013-05-17 21:12:00,62.0,55.0,-100.00,North,355,0.0,0.0,78,-99.99,,,-99.99,,2013-05-18 02:12:00,
2013-05-17 21:43:00,61.0,55.0,-100.00,North,355,0.0,0.0,81,-99.99,,,-99.99,,2013-05-18 02:43:00,
2013-05-17 21:54:00,61.0,55.0,-100.00,North,355,0.0,0.0,81,-99.99,,,-99.99,,2013-05-18 02:54:00,
2013-05-17 22:43:00,60.0,54.0,-100.00,North,355,0.0,0.0,81,-99.99,,,-99.99,,2013-05-18 03:43:00,
2013-05-17 22:53:00,60.0,54.0,-100.00,North,355,0.0,0.0,81,-99.99,,,-99.99,,2013-05-18 03:53:00,